Regional Weather Roundup
Issued by NWS State College, PA

Home | Current Version | Previous Version | Graphics & Text | Print | Product List | Glossary Off
Versions: 1 2 3 4 5 6 7 8 9 10 11 12 13 14 15 16 17 18 19 20 21 22 23 24 25 26 27 28 29 30 31 32 33 34 35 36 37 38 39 40 41 42 43 44 45 46 47 48 49 50

000
ASUS41 KCTP 040603
RWRCTP

REGIONAL WEATHER ROUNDUP
NATIONAL WEATHER SERVICE STATE COLLEGE PA
200 AM EDT SAT JUL 04 2015

Note: "fair" indicates few or no clouds below 12,000 feet with no
significant weather and/or obstructions to visibility.

* = STATION THAT DOES NOT REPORT PRECIPITATION /E.G. RAIN...SNOW...ETC/
    THUNDER OR FOG.

PAZ002>004-007>009-013>016-020>023-029>032-040700-
WESTERN PENNSYLVANIA

CITY           SKY/WX    TMP DP  RH WIND       PRES   REMARKS
ERIE           PTCLDY    62  52  69 CALM      29.90S
MEADVILLE      CLOUDY    64  54  69 CALM      29.91F
FRANKLIN*      CLOUDY    64  61  88 CALM      29.93S
NEW CASTLE     HVY RAIN  67  67 100 CALM      29.90F
BEAVER COUNTY  NOT AVBL
BUTLER*        CLOUDY    64  63  94 E5        29.90F
PITTSBURGH INT CLOUDY    66  64  93 E3        29.87F FOG
PITTSBURGH     HVY RAIN  64  60  87 E5        29.88F FOG
INDIANA*       CLOUDY    64  63  94 CALM      29.93F FOG
LATROBE        NOT AVBL
WASHINGTON CO* NOT AVBL
$$

PAZ004>006-010>012-017>019-024>028-033>037-041-042-045-046-049>053-040700-
CENTRAL PENNSYLVANIA

CITY           SKY/WX    TMP DP  RH WIND       PRES   REMARKS
BRADFORD       LGT RAIN  62  60  93 CALM      29.95F FOG
DUBOIS         LGT RAIN  65  62  90 NE3       29.92F FOG
CLEARFIELD     LGT RAIN  64  62  93 NE3       29.94F FOG
JOHNSTOWN      LGT RAIN  61  59  93 S12       29.93F FOG
ALTOONA        LGT RAIN  64  62  93 CALM      29.94S FOG
STATE COLLEGE  HVY RAIN  65  64  98 CALM      29.95S
WILLIAMSPORT   LGT RAIN  69  64  84 NE5       29.92F
SELINSGROVE    RAIN      68  65  90 CALM      29.93F FOG
FT INDIANTOWN  CLOUDY    68  65  90 E1        29.94S
CAPITAL CITY   LGT RAIN  71  63  75 SE7       29.93S
HARRISBURG     LGT RAIN  71  64  78 SE8       29.93S
YORK           CLOUDY    69  64  84 CALM      29.93F
$$

PAZ038>040-043-044-047-048-054-055-060>062-067>071-040700-
EASTERN PENNSYLVANIA

CITY           SKY/WX    TMP DP  RH WIND       PRES   REMARKS
SCRANTON       CLOUDY    69  60  73 CALM      29.96F
MOUNT POCONO   CLOUDY    64  58  80 CALM      30.01S
ALLENTOWN      CLOUDY    72  61  68 S5        29.96S
QUAKERTOWN*    CLOUDY    68  63  83 CALM      29.97F
READING        CLOUDY    71  60  68 SE5       29.93F
LANCASTER      LGT RAIN  68  64  87 S5        29.94F
COATESVILLE    CLOUDY    68  66  94 CALM      29.96F
POTTSTOWN      CLOUDY    69  63  81 CALM      29.97F
BLUE BELL      CLOUDY    70  64  83 CALM      29.95F
DOYLESTOWN     LGT RAIN  67  63  87 VRB5      29.96F
WILLOW GROVE   NOT AVBL
NORTH PHILA    LGT RAIN  71  63  75 CALM      29.97F
PHILADELPHIA   CLOUDY    70  65  84 CALM      29.95F
$$



USA.gov is the U.S. government's official web portal to all federal, state and local government web resources and services.